Weather History for Fort Myers, FL

Change the Weather History Date:

Tuesday, April 30, 2013

  Actual Average Record
Temperature  
Mean Temperature 79 °F 76 °F  
Max Temperature 88 °F 87 °F 96 °F (1986)
Min Temperature 69 °F 65 °F 49 °F (1916)
Degree Days  
Heating Degree Days 0 0  
Month to date heating degree days 0 0  
Since 1 July heating degree days 201 287  
Cooling Degree Days 14 11  
Month to date cooling degree days 364 269  
Year to date cooling degree days 746 630  
Growing Degree Days 28 (Base 50)    
Moisture  
Dew Point 68 °F    
Average Humidity 76    
Maximum Humidity 97    
Minimum Humidity 51    
Precipitation  
Precipitation 0.00 in 0.07 in 2.16 in (1956)
Month to date precipitation 3.09 2.18  
Year to date precipitation 6.35 9.15  
Sea Level Pressure  
Sea Level Pressure 29.96 in    
Wind  
Wind Speed 5 mph (ESE)    
Max Wind Speed 16 mph    
Max Gust Speed 21 mph    
Visibility 10 miles    
Events Thunderstorm    
T = Trace of Precipitation, MM = Missing Value Source: NWS Daily Summary

Daily Weather History Graph

Daily Weather History Graph

Search for Another Location

Airport:

Trip Planner

Search our weather history database for the weather conditions in past years. The results will help you decide how hot, cold, wet, or windy it might be!

Date:

Astronomy

Apr. 30, 2013 Rise Set
Actual Time 6:50 AM EDT 7:59 PM EDT
Civil Twilight 6:25 AM EDT 8:23 PM EDT
Nautical Twilight 5:56 AM EDT 8:52 PM EDT
Astronomical Twilight 5:27 AM EDT 9:22 PM EDT
Moon 12:14 AM EDT 11:22 AM EDT
Length of Visible Light 13h 58m
Length of Day
13h 09m
Waning Gibbous, 70% of the Moon is Illuminated
Apr 30
Waning Gibbous
May 2
Last Quarter
May 9
New
May 18
First Quarter
May 25
Full

Hourly Weather History & Observations

Time (EDT) Temp. Heat Index Dew Point Humidity Pressure Visibility Wind Dir Wind Speed Gust Speed Precip Events Conditions
12:53 AM 71.1 °F - 66.9 °F 87% 29.97 in 10.0 mi ESE 4.6 mph - N/A   Clear
1:53 AM 71.1 °F - 66.9 °F 87% 29.97 in 10.0 mi SE 3.5 mph - N/A   Clear
2:53 AM 70.0 °F - 66.9 °F 90% 29.94 in 10.0 mi East 3.5 mph - N/A   Clear
3:53 AM 69.1 °F - 66.9 °F 93% 29.94 in 10.0 mi Calm Calm - N/A   Clear
4:53 AM 69.1 °F - 66.9 °F 93% 29.94 in 10.0 mi Calm Calm - N/A   Clear
5:37 AM 69.8 °F - 66.2 °F 88% 29.94 in 10.0 mi Calm Calm - N/A   Mostly Cloudy
5:49 AM 69.8 °F - 66.2 °F 88% 29.94 in 10.0 mi Calm Calm - N/A   Scattered Clouds
5:53 AM 69.1 °F - 66.9 °F 93% 29.95 in 10.0 mi East 3.5 mph - N/A   Scattered Clouds
6:53 AM 69.1 °F - 66.9 °F 93% 29.97 in 10.0 mi Calm Calm - N/A   Scattered Clouds
7:53 AM 70.0 °F - 68.0 °F 93% 29.98 in 10.0 mi Calm Calm - N/A   Clear
8:53 AM 73.0 °F - 70.0 °F 90% 29.99 in 10.0 mi ESE 4.6 mph - N/A   Clear
9:53 AM 78.1 °F - 70.0 °F 76% 29.99 in 10.0 mi Variable 4.6 mph - N/A   Clear
10:43 AM 80.6 °F 83.9 °F 69.8 °F 70% 29.98 in 10.0 mi SSE 12.7 mph - N/A   Mostly Cloudy
10:53 AM 82.0 °F 85.9 °F 70.0 °F 67% 29.99 in 10.0 mi SSE 11.5 mph - N/A   Mostly Cloudy
11:53 AM 84.0 °F 86.5 °F 66.9 °F 56% 29.98 in 10.0 mi SSW 6.9 mph - N/A   Partly Cloudy
12:53 PM 84.0 °F 87.0 °F 68.0 °F 58% 29.96 in 10.0 mi SSW 4.6 mph - N/A   Mostly Cloudy
1:53 PM 86.0 °F 88.8 °F 66.9 °F 53% 29.94 in 10.0 mi SSW 8.1 mph - N/A   Partly Cloudy
2:53 PM 86.0 °F 89.4 °F 68.0 °F 55% 29.93 in 10.0 mi SW 9.2 mph - N/A   Mostly Cloudy
3:53 PM 86.0 °F 90.1 °F 69.1 °F 57% 29.91 in 10.0 mi SW 9.2 mph 19.6 mph N/A Thunderstorm Scattered Clouds
4:51 PM 82.4 °F 85.4 °F 68.0 °F 62% 29.92 in 10.0 mi ENE 10.4 mph - N/A   Mostly Cloudy
4:53 PM 82.9 °F 85.4 °F 66.9 °F 58% 29.93 in 10.0 mi ENE 10.4 mph - N/A Thunderstorm Mostly Cloudy
5:13 PM 78.8 °F - 66.2 °F 65% 29.93 in 10.0 mi ENE 12.7 mph - N/A   Mostly Cloudy
5:53 PM 75.9 °F - 64.9 °F 69% 29.94 in 10.0 mi East 9.2 mph - N/A   Mostly Cloudy
6:14 PM 78.8 °F - 66.2 °F 65% 29.94 in 10.0 mi East 6.9 mph - N/A   Mostly Cloudy
6:24 PM 78.8 °F - 66.2 °F 65% 29.94 in 10.0 mi East 9.2 mph - N/A Thunderstorm Overcast
6:53 PM 77.0 °F - 66.9 °F 71% 29.96 in 10.0 mi ESE 4.6 mph - N/A Thunderstorm Partly Cloudy
7:05 PM 77.0 °F - 66.2 °F 69% 29.95 in 10.0 mi ESE 3.5 mph - N/A   Partly Cloudy
7:53 PM 75.9 °F - 66.9 °F 74% 29.96 in 10.0 mi ESE 6.9 mph - N/A   Clear
8:53 PM 73.9 °F - 69.1 °F 85% 29.98 in 10.0 mi East 3.5 mph - N/A   Clear
9:53 PM 73.9 °F - 70.0 °F 87% 29.99 in 10.0 mi ENE 4.6 mph - N/A   Clear
10:53 PM 72.0 °F - 70.0 °F 93% 29.99 in 10.0 mi Calm Calm - N/A   Clear
11:53 PM 72.0 °F - 70.0 °F 93% 29.98 in 10.0 mi ESE 4.6 mph - N/A   Clear